Location: Little Arabia
(41.4620°N, 81.7687°W)
Time: 19:13:51
(UTC+00:00)

H-2A R/B - Pass Details

Date: 29 October 2020
Orbit: 733 x 837 km, 98.2° (Epoch: 03 December)

Event Time Altitude Azimuth Distance (km) Brightness Sun altitude
Rises 22:59:00 0° 117° (ESE) 3,364 4.9 -7.0°
Reaches altitude 10° 23:02:13 10° 97° (E) 2,444 4.0 -7.5°
Maximum altitude 23:05:27 16° 61° (ENE) 2,039 3.6 -8.1°
Drops below altitude 10° 23:08:42 10° 24° (NNE) 2,459 4.3 -8.7°
Sets 23:11:55 0° 4° (N) 3,395 5.2 -9.3°
